Location: Harbor View
(36.2448°N, 86.5797°W)
Time: 08:53:47
(UTC+00:00)

SAR-Lupe-4 - Pass Details

Date: 29 October 2020
Orbit: 481 x 484 km, 98.2° (Epoch: 25 November)

Event Time Altitude Azimuth Distance (km) Brightness Sun altitude
Rises 23:24:01 0° 17° (NNE) 2,548 6.9 -7.0°
Reaches altitude 10° 23:26:07 10° 21° (NNE) 1,664 6.0 -7.4°
Maximum altitude 23:29:38 57° 101° (E) 574 3.6 -8.1°
Drops below altitude 10° 23:33:07 10° 181° (S) 1,652 6.4 -8.8°
Sets 23:35:12 0° 185° (S) 2,527 7.4 -9.2°
